(498213) = 2007 TW433 = 2013 YA9

Discovered at Kitt Peak on 2007-10-13 by Spacewatch.

Orbit

Orbit type: Main Belt

Note: WebGL enabled browser required.

epoch2023-09-13.0
epoch JD2460200.5
perihelion date2018-07-29.12488
perihelion JD2458328.62488
argument of perihelion (°)225.71251
ascending node (°)176.62211
inclination (°)1.38596
eccentricity0.1737333
perihelion distance (AU)2.5202358
Tisserand w.r.t. Jupiter3.2
ΔV w.r.t. Earth (km/sec)10.0
semimajor axis (AU)3.0501481
mean anomaly (°)346.33735
mean daily motion (°/day)0.18502160
aphelion distance (AU)3.580
period (years)5.33
P-vector [x]0.73921199
P-vector [y]0.62458223
P-vector [z]0.25191797
Q-vector [x]-0.67347130
Q-vector [y]0.68475601
Q-vector [z]0.27847011
absolute magnitude17.08
phase slope0.15
uncertainty0
referenceMPEC 2023-Y63
observations used143
oppositions11
arc length (days)7181
first opposition used2004
last opposition used2023
residual rms (arc-secs)0.80
perturbers coarse indicatorM-v
perturbers precise indicator003Ek
first observation date used2004-03-15.0
last observation date used2023-11-12.0
computer nameMPCLINUX
JD of orbit computation2457985.221941
perihelion JD uncertainty (days)1.7924E-04
argument of perihelion uncertainty (°)2.3197E-04
ascending node uncertainty (°)2.2959E-04
inclination uncertainty (°)6.4602E-06
eccentricity uncertainty 4.4146E-08
perihelion distance uncertainty (AU)1.4997E-07
Minimum Orbit Intersection Distances (in AU)
for orbit epoch: 2460200.5, reference: E2023-Y63
Mercury2.19903
Venus1.79709
Earth1.52809
Mars1.04081
Jupiter1.82324
Saturn6.13325
Uranus15.0363
Neptune27.0953

Observations

148 total observations over interval: 2004 03 15.27106 – 2023 11 12.453646
These data are available for download (format description).

